Wetterdaten: Freitag, 03.10.2025
Datum Zeit Außen Temp. Server Temp. +20m Feuchte Feuchte +20m Luftdruck Regen Wind Richtung Richtung Sonnenschein Helligkeit Solar Taupunkt
03.10.2025 00:00 5,7 °C 15,4 °C 5,4 °C 81 % 80 % 1027,9 hPa 0,00 l/m² 51,3 km/h (7 Bft) S-SW 195 ° 0 min 0 lux 0 W/m² 2,7 °C
03.10.2025 00:15 5,7 °C 15,3 °C 5,8 °C 81 % 84 % 1027,9 hPa 0,00 l/m² 51,3 km/h (7 Bft) S-SW 195 ° 0 min 0 lux 0 W/m² 2,7 °C
03.10.2025 00:30 5,7 °C 15,2 °C 6,4 °C 81 % 84 % 1027,9 hPa 0,00 l/m² 51,3 km/h (7 Bft) S-SW 195 ° 0 min 0 lux 0 W/m² 2,7 °C
03.10.2025 00:45 5,7 °C 15,1 °C 6,4 °C 81 % 79 % 1027,9 hPa 0,00 l/m² 51,3 km/h (7 Bft) S-SW 195 ° 0 min 0 lux 0 W/m² 2,7 °C
03.10.2025 01:00 5,7 °C 15,1 °C 6,2 °C 81 % 78 % 1026,9 hPa 0,00 l/m² 51,3 km/h (7 Bft) S-SW 195 ° 0 min 0 lux 0 W/m² 2,7 °C
03.10.2025 01:15 5,7 °C 15,1 °C 6,0 °C 83 % 77 % 1026,9 hPa 0,00 l/m² 51,3 km/h (7 Bft) S-SW 195 ° 0 min 0 lux 0 W/m² 3,0 °C
03.10.2025 01:30 5,3 °C 15,0 °C 5,2 °C 83 % 75 % 1026,9 hPa 0,00 l/m² 51,3 km/h (7 Bft) S-SW 195 ° 0 min 0 lux 0 W/m² 2,7 °C
03.10.2025 01:45 4,9 °C 15,0 °C 5,3 °C 84 % 80 % 1027,0 hPa 0,00 l/m² 51,3 km/h (7 Bft) S-SW 195 ° 0 min 0 lux 0 W/m² 2,4 °C
03.10.2025 02:00 4,6 °C 14,9 °C 4,8 °C 84 % 81 % 1027,0 hPa 0,00 l/m² 51,3 km/h (7 Bft) S-SW 195 ° 0 min 0 lux 0 W/m² 2,1 °C
03.10.2025 02:15 4,5 °C 14,9 °C 4,9 °C 84 % 84 % 1027,0 hPa 0,00 l/m² 51,3 km/h (7 Bft) S-SW 195 ° 0 min 0 lux 0 W/m² 2,0 °C
03.10.2025 02:30 4,4 °C 14,9 °C 4,9 °C 84 % 86 % 1027,0 hPa 0,00 l/m² 51,3 km/h (7 Bft) S-SW 195 ° 0 min 0 lux 0 W/m² 1,9 °C
03.10.2025 02:45 4,9 °C 14,8 °C 5,7 °C 84 % 88 % 1027,0 hPa 0,00 l/m² 51,3 km/h (7 Bft) S-SW 195 ° 0 min 0 lux 0 W/m² 2,4 °C
03.10.2025 03:00 5,3 °C 14,7 °C 5,9 °C 85 % 87 % 1026,9 hPa 0,00 l/m² 51,3 km/h (7 Bft) S-SW 195 ° 0 min 0 lux 0 W/m² 3,0 °C
03.10.2025 03:15 5,7 °C 14,5 °C 6,2 °C 85 % 86 % 1025,9 hPa 0,00 l/m² 51,3 km/h (7 Bft) S-SW 195 ° 0 min 0 lux 0 W/m² 3,4 °C
03.10.2025 03:30 6,1 °C 14,4 °C 6,4 °C 84 % 81 % 1025,8 hPa 0,00 l/m² 51,3 km/h (7 Bft) S-SW 195 ° 0 min 0 lux 0 W/m² 3,6 °C
03.10.2025 03:45 6,0 °C 14,4 °C 6,2 °C 83 % 77 % 1025,8 hPa 0,00 l/m² 51,3 km/h (7 Bft) S-SW 195 ° 0 min 0 lux 0 W/m² 3,3 °C
03.10.2025 04:00 5,3 °C 14,4 °C 5,6 °C 83 % 76 % 1025,9 hPa 0,00 l/m² 51,3 km/h (7 Bft) S-SW 195 ° 0 min 0 lux 0 W/m² 2,7 °C
03.10.2025 04:15 5,0 °C 14,4 °C 5,4 °C 84 % 80 % 1025,9 hPa 0,00 l/m² 51,3 km/h (7 Bft) S-SW 195 ° 0 min 0 lux 0 W/m² 2,5 °C
03.10.2025 04:30 4,6 °C 14,4 °C 5,0 °C 84 % 82 % 1026,0 hPa 0,00 l/m² 51,3 km/h (7 Bft) S-SW 195 ° 0 min 0 lux 0 W/m² 2,1 °C
03.10.2025 04:45 4,5 °C 14,4 °C 4,7 °C 84 % 83 % 1026,0 hPa 0,00 l/m² 51,3 km/h (7 Bft) S-SW 195 ° 0 min 0 lux 0 W/m² 2,0 °C
03.10.2025 05:00 4,4 °C 14,4 °C 4,8 °C 84 % 85 % 1026,0 hPa 0,00 l/m² 51,3 km/h (7 Bft) S-SW 195 ° 0 min 0 lux 0 W/m² 1,9 °C
03.10.2025 05:15 4,0 °C 14,3 °C 4,2 °C 84 % 84 % 1026,1 hPa 0,00 l/m² 51,3 km/h (7 Bft) S-SW 195 ° 0 min 0 lux 0 W/m² 1,5 °C
03.10.2025 05:30 3,8 °C 14,3 °C 3,6 °C 85 % 84 % 1026,1 hPa 0,00 l/m² 51,3 km/h (7 Bft) S-SW 195 ° 0 min 0 lux 0 W/m² 1,5 °C
03.10.2025 05:45 3,6 °C 14,3 °C 3,3 °C 85 % 85 % 1026,1 hPa 0,00 l/m² 51,3 km/h (7 Bft) S-SW 195 ° 0 min 0 lux 0 W/m² 1,3 °C
03.10.2025 06:00 3,4 °C 14,2 °C 3,0 °C 85 % 87 % 1026,1 hPa 0,00 l/m² 51,3 km/h (7 Bft) S-SW 195 ° 0 min 0 lux 0 W/m² 1,1 °C
03.10.2025 06:15 3,2 °C 14,1 °C 3,4 °C 85 % 89 % 1026,2 hPa 0,00 l/m² 51,3 km/h (7 Bft) S-SW 195 ° 0 min 0 lux 0 W/m² 0,9 °C
03.10.2025 06:30 3,0 °C 14,1 °C 2,8 °C 85 % 89 % 1026,2 hPa 0,00 l/m² 51,3 km/h (7 Bft) S-SW 195 ° 0 min 0 lux 0 W/m² 0,7 °C
03.10.2025 06:45 3,0 °C 13,9 °C 2,9 °C 85 % 90 % 1026,2 hPa 0,00 l/m² 51,3 km/h (7 Bft) S-SW 195 ° 0 min 0 lux 0 W/m² 0,7 °C
03.10.2025 07:00 2,8 °C 13,9 °C 2,7 °C 85 % 90 % 1026,2 hPa 0,00 l/m² 51,3 km/h (7 Bft) S-SW 195 ° 0 min 0 lux 0 W/m² 0,5 °C
03.10.2025 07:15 2,8 °C 13,8 °C 2,8 °C 85 % 91 % 1026,2 hPa 0,00 l/m² 51,3 km/h (7 Bft) S-SW 195 ° 0 min 225 lux 0 W/m² 0,5 °C
03.10.2025 07:30 3,0 °C 13,7 °C 3,8 °C 85 % 92 % 1026,2 hPa 0,00 l/m² 51,3 km/h (7 Bft) S-SW 195 ° 0 min 1,26 klux 8 W/m² 0,7 °C
03.10.2025 07:45 3,3 °C 13,6 °C 3,6 °C 85 % 91 % 1026,1 hPa 0,00 l/m² 51,3 km/h (7 Bft) S-SW 195 ° 0 min 1,83 klux 12 W/m² 1,0 °C
03.10.2025 08:00 3,3 °C 13,6 °C 3,5 °C 85 % 91 % 1026,1 hPa 0,00 l/m² 51,3 km/h (7 Bft) S-SW 195 ° 15 min 7,69 klux 50 W/m² 1,0 °C
03.10.2025 08:15 3,6 °C 13,7 °C 4,2 °C 85 % 92 % 1026,1 hPa 0,00 l/m² 51,3 km/h (7 Bft) S-SW 195 ° 15 min 12,1 klux 79 W/m² 1,3 °C
03.10.2025 08:30 4,3 °C 13,9 °C 5,1 °C 85 % 91 % 1026,0 hPa 0,00 l/m² 51,3 km/h (7 Bft) S-SW 195 ° 15 min 15,6 klux 102 W/m² 2,0 °C
03.10.2025 08:45 5,4 °C 14,2 °C 5,9 °C 85 % 90 % 1024,9 hPa 0,00 l/m² 51,3 km/h (7 Bft) S-SW 195 ° 15 min 19,8 klux 129 W/m² 3,1 °C
03.10.2025 09:00 6,5 °C 14,5 °C 7,1 °C 85 % 88 % 1024,7 hPa 0,00 l/m² 51,3 km/h (7 Bft) S-SW 195 ° 15 min 23,5 klux 153 W/m² 4,2 °C
03.10.2025 09:15 7,6 °C 14,8 °C 8,3 °C 84 % 79 % 1025,7 hPa 0,00 l/m² 51,3 km/h (7 Bft) S-SW 195 ° 15 min 26,4 klux 172 W/m² 5,1 °C
03.10.2025 09:30 9,1 °C 15,2 °C 9,4 °C 74 % 60 % 1024,5 hPa 0,00 l/m² 51,3 km/h (7 Bft) S-SW 195 ° 15 min 28,6 klux 186 W/m² 4,7 °C
03.10.2025 09:45 9,7 °C 15,6 °C 10,1 °C 69 % 53 % 1024,4 hPa 0,00 l/m² 51,3 km/h (7 Bft) S-SW 195 ° 15 min 32,1 klux 209 W/m² 4,3 °C
03.10.2025 10:00 10,1 °C 15,9 °C 10,7 °C 67 % 49 % 1024,4 hPa 0,00 l/m² 51,3 km/h (7 Bft) S-SW 195 ° 15 min 35,3 klux 230 W/m² 4,3 °C
03.10.2025 10:15 10,5 °C 16,3 °C 11,1 °C 65 % 46 % 1024,3 hPa 0,00 l/m² 51,3 km/h (7 Bft) S-SW 195 ° 15 min 36,0 klux 235 W/m² 4,2 °C
03.10.2025 10:30 11,0 °C 16,6 °C 11,9 °C 64 % 45 % 1024,3 hPa 0,00 l/m² 51,3 km/h (7 Bft) S-SW 195 ° 15 min 40,6 klux 264 W/m² 4,5 °C
03.10.2025 10:45 11,3 °C 17,0 °C 12,3 °C 61 % 42 % 1024,2 hPa 0,00 l/m² 51,3 km/h (7 Bft) S-SW 195 ° 15 min 45,1 klux 294 W/m² 4,1 °C
03.10.2025 11:00 11,5 °C 17,7 °C 12,6 °C 62 % 41 % 1024,2 hPa 0,00 l/m² 51,3 km/h (7 Bft) S-SW 195 ° 15 min 43,1 klux 281 W/m² 4,5 °C
03.10.2025 11:15 11,5 °C 18,4 °C 12,6 °C 62 % 41 % 1024,2 hPa 0,00 l/m² 51,3 km/h (7 Bft) S-SW 195 ° 15 min 43,8 klux 285 W/m² 4,5 °C
03.10.2025 11:30 11,9 °C 21,3 °C 13,0 °C 62 % 41 % 1023,1 hPa 0,00 l/m² 51,3 km/h (7 Bft) S-SW 195 ° 15 min 48,8 klux 318 W/m² 4,9 °C
03.10.2025 11:45 12,4 °C 22,7 °C 13,5 °C 60 % 41 % 1023,1 hPa 0,00 l/m² 51,3 km/h (7 Bft) S-SW 195 ° 15 min 49,4 klux 322 W/m² 4,9 °C
03.10.2025 12:00 12,5 °C 20,5 °C 13,5 °C 60 % 40 % 1023,1 hPa 0,00 l/m² 51,3 km/h (7 Bft) S-SW 195 ° 15 min 50,0 klux 326 W/m² 5,0 °C
03.10.2025 12:15 12,7 °C 18,8 °C 13,7 °C 59 % 40 % 1023,0 hPa 0,00 l/m² 51,3 km/h (7 Bft) S-SW 195 ° 15 min 51,4 klux 335 W/m² 4,9 °C
03.10.2025 12:30 12,9 °C 18,2 °C 14,2 °C 60 % 40 % 1023,0 hPa 0,00 l/m² 51,3 km/h (7 Bft) S-SW 195 ° 15 min 52,3 klux 341 W/m² 5,3 °C
03.10.2025 12:45 13,1 °C 17,8 °C 14,1 °C 59 % 39 % 1023,0 hPa 0,00 l/m² 51,3 km/h (7 Bft) S-SW 195 ° 15 min 53,0 klux 345 W/m² 5,3 °C
03.10.2025 13:00 13,4 °C 17,6 °C 14,4 °C 58 % 38 % 1023,0 hPa 0,00 l/m² 51,3 km/h (7 Bft) S-SW 195 ° 15 min 54,2 klux 353 W/m² 5,3 °C
03.10.2025 13:15 13,7 °C 17,4 °C 14,5 °C 56 % 37 % 1021,9 hPa 0,00 l/m² 51,3 km/h (7 Bft) S-SW 195 ° 15 min 54,0 klux 352 W/m² 5,1 °C
03.10.2025 13:30 14,2 °C 17,4 °C 15,0 °C 54 % 36 % 1021,9 hPa 0,00 l/m² 51,3 km/h (7 Bft) S-SW 195 ° 15 min 55,5 klux 362 W/m² 5,0 °C
03.10.2025 13:45 14,1 °C 17,3 °C 14,9 °C 51 % 35 % 1021,9 hPa 0,00 l/m² 51,3 km/h (7 Bft) S-SW 195 ° 15 min 55,0 klux 358 W/m² 4,1 °C
03.10.2025 14:00 14,3 °C 17,3 °C 14,8 °C 51 % 35 % 1021,8 hPa 0,00 l/m² 51,3 km/h (7 Bft) S-SW 195 ° 15 min 55,2 klux 360 W/m² 4,3 °C
03.10.2025 14:15 14,9 °C 17,4 °C 15,6 °C 50 % 33 % 1020,8 hPa 0,00 l/m² 51,3 km/h (7 Bft) S-SW 195 ° 15 min 55,4 klux 361 W/m² 4,6 °C
03.10.2025 14:30 14,3 °C 17,5 °C 14,6 °C 51 % 35 % 1020,8 hPa 0,00 l/m² 51,3 km/h (7 Bft) S-SW 195 ° 15 min 42,4 klux 276 W/m² 4,3 °C
03.10.2025 14:45 14,0 °C 17,6 °C 15,0 °C 53 % 36 % 1020,8 hPa 0,00 l/m² 51,3 km/h (7 Bft) S-SW 195 ° 15 min 43,2 klux 281 W/m² 4,6 °C
03.10.2025 15:00 15,0 °C 17,6 °C 15,9 °C 50 % 34 % 1020,7 hPa 0,00 l/m² 51,3 km/h (7 Bft) S-SW 195 ° 15 min 60,3 klux 393 W/m² 4,7 °C
03.10.2025 15:15 14,7 °C 17,8 °C 15,5 °C 44 % 27 % 1020,8 hPa 0,00 l/m² 51,3 km/h (7 Bft) S-SW 195 ° 15 min 62,5 klux 407 W/m² 2,6 °C
03.10.2025 15:30 14,5 °C 17,8 °C 15,3 °C 46 % 27 % 1020,8 hPa 0,00 l/m² 51,3 km/h (7 Bft) S-SW 195 ° 0 min 24,9 klux 162 W/m² 3,0 °C
03.10.2025 15:45 14,4 °C 17,8 °C 15,3 °C 46 % 27 % 1020,8 hPa 0,00 l/m² 51,3 km/h (7 Bft) S-SW 195 ° 0 min 19,2 klux 125 W/m² 2,9 °C
03.10.2025 16:00 14,3 °C 17,9 °C 15,4 °C 46 % 26 % 1019,8 hPa 0,00 l/m² 51,3 km/h (7 Bft) S-SW 195 ° 0 min 26,1 klux 170 W/m² 2,8 °C
03.10.2025 16:15 14,5 °C 17,8 °C 15,6 °C 49 % 26 % 1019,8 hPa 0,00 l/m² 51,3 km/h (7 Bft) S-SW 195 ° 15 min 29,4 klux 192 W/m² 3,9 °C
03.10.2025 16:30 14,4 °C 17,9 °C 15,4 °C 50 % 29 % 1019,8 hPa 0,00 l/m² 51,3 km/h (7 Bft) S-SW 195 ° 0 min 21,1 klux 137 W/m² 4,1 °C
03.10.2025 16:45 14,3 °C 17,8 °C 15,2 °C 52 % 32 % 1019,8 hPa 0,00 l/m² 51,3 km/h (7 Bft) S-SW 195 ° 15 min 32,1 klux 209 W/m² 4,6 °C
03.10.2025 17:00 14,3 °C 17,9 °C 15,2 °C 53 % 34 % 1018,8 hPa 0,00 l/m² 51,3 km/h (7 Bft) S-SW 195 ° 15 min 29,7 klux 193 W/m² 4,9 °C
03.10.2025 17:15 14,1 °C 17,9 °C 14,8 °C 54 % 36 % 1018,8 hPa 0,00 l/m² 51,3 km/h (7 Bft) S-SW 195 ° 15 min 17,8 klux 116 W/m² 4,9 °C
03.10.2025 17:30 13,8 °C 17,9 °C 14,5 °C 55 % 37 % 1018,8 hPa 0,00 l/m² 51,3 km/h (7 Bft) S-SW 195 ° 0 min 9,8 klux 64 W/m² 4,9 °C
03.10.2025 17:45 13,7 °C 17,8 °C 14,2 °C 56 % 40 % 1018,8 hPa 0,00 l/m² 51,3 km/h (7 Bft) S-SW 195 ° 0 min 8,15 klux 53 W/m² 5,1 °C
03.10.2025 18:00 13,4 °C 17,8 °C 13,9 °C 57 % 40 % 1018,8 hPa 0,00 l/m² 51,3 km/h (7 Bft) S-SW 195 ° 0 min 6,60 klux 43 W/m² 5,1 °C
03.10.2025 18:15 13,1 °C 17,7 °C 13,4 °C 58 % 41 % 1017,9 hPa 0,00 l/m² 51,3 km/h (7 Bft) S-SW 195 ° 0 min 4,69 klux 31 W/m² 5,0 °C
03.10.2025 18:30 12,5 °C 17,7 °C 12,7 °C 59 % 42 % 1017,9 hPa 0,00 l/m² 51,3 km/h (7 Bft) S-SW 195 ° 0 min 2,91 klux 19 W/m² 4,7 °C
03.10.2025 18:45 12,0 °C 17,6 °C 12,0 °C 60 % 44 % 1018,0 hPa 0,00 l/m² 51,3 km/h (7 Bft) S-SW 195 ° 0 min 1,22 klux 8 W/m² 4,5 °C
03.10.2025 19:00 11,4 °C 17,4 °C 11,4 °C 63 % 45 % 1019,1 hPa 0,00 l/m² 51,3 km/h (7 Bft) S-SW 195 ° 0 min 384 lux 0 W/m² 4,6 °C
03.10.2025 19:15 11,1 °C 17,3 °C 11,2 °C 63 % 46 % 1018,1 hPa 0,00 l/m² 51,3 km/h (7 Bft) S-SW 195 ° 0 min 99 lux 0 W/m² 4,3 °C
03.10.2025 19:30 10,8 °C 17,1 °C 11,0 °C 64 % 47 % 1018,1 hPa 0,00 l/m² 51,3 km/h (7 Bft) S-SW 195 ° 0 min 7 lux 0 W/m² 4,3 °C
03.10.2025 19:45 10,3 °C 17,0 °C 10,4 °C 65 % 47 % 1018,1 hPa 0,00 l/m² 51,3 km/h (7 Bft) S-SW 195 ° 0 min 0 lux 0 W/m² 4,0 °C
03.10.2025 20:00 10,2 °C 16,9 °C 10,4 °C 66 % 47 % 1018,2 hPa 0,00 l/m² 51,3 km/h (7 Bft) S-SW 195 ° 0 min 0 lux 0 W/m² 4,1 °C
03.10.2025 20:15 10,5 °C 16,8 °C 10,6 °C 64 % 46 % 1018,1 hPa 0,00 l/m² 51,3 km/h (7 Bft) S-SW 195 ° 0 min 0 lux 0 W/m² 4,0 °C
03.10.2025 20:30 10,5 °C 16,7 °C 10,6 °C 63 % 45 % 1018,1 hPa 0,00 l/m² 51,3 km/h (7 Bft) S-SW 195 ° 0 min 0 lux 0 W/m² 3,8 °C
03.10.2025 20:45 10,5 °C 16,6 °C 10,5 °C 62 % 45 % 1018,1 hPa 0,00 l/m² 51,3 km/h (7 Bft) S-SW 195 ° 0 min 0 lux 0 W/m² 3,5 °C
03.10.2025 21:00 10,4 °C 16,5 °C 10,6 °C 62 % 44 % 1017,1 hPa 0,00 l/m² 51,3 km/h (7 Bft) S-SW 195 ° 0 min 0 lux 0 W/m² 3,4 °C
03.10.2025 21:15 10,5 °C 16,4 °C 10,8 °C 61 % 43 % 1017,1 hPa 0,00 l/m² 51,3 km/h (7 Bft) S-SW 195 ° 0 min 0 lux 0 W/m² 3,3 °C
03.10.2025 21:31 10,8 °C 16,2 °C 11,2 °C 60 % 42 % 1017,1 hPa 0,00 l/m² 51,3 km/h (7 Bft) S-SW 195 ° 0 min 0 lux 0 W/m² 3,4 °C
03.10.2025 21:45 11,0 °C 16,1 °C 11,4 °C 59 % 41 % 1017,0 hPa 0,00 l/m² 51,3 km/h (7 Bft) S-SW 195 ° 0 min 0 lux 0 W/m² 3,3 °C
03.10.2025 22:00 11,1 °C 16,0 °C 11,5 °C 58 % 40 % 1017,0 hPa 0,00 l/m² 51,3 km/h (7 Bft) S-SW 195 ° 0 min 0 lux 0 W/m² 3,2 °C
03.10.2025 22:15 11,3 °C 15,9 °C 11,6 °C 57 % 40 % 1016,0 hPa 0,00 l/m² 51,3 km/h (7 Bft) S-SW 195 ° 0 min 0 lux 0 W/m² 3,1 °C
03.10.2025 22:30 11,4 °C 15,8 °C 11,7 °C 57 % 39 % 1016,0 hPa 0,00 l/m² 51,3 km/h (7 Bft) S-SW 195 ° 0 min 0 lux 0 W/m² 3,2 °C
03.10.2025 22:45 11,4 °C 15,8 °C 11,7 °C 57 % 39 % 1016,0 hPa 0,00 l/m² 51,3 km/h (7 Bft) S-SW 195 ° 0 min 0 lux 0 W/m² 3,2 °C
03.10.2025 23:00 11,4 °C 15,7 °C 11,7 °C 56 % 39 % 1014,9 hPa 0,00 l/m² 51,3 km/h (7 Bft) S-SW 195 ° 0 min 0 lux 0 W/m² 2,9 °C
03.10.2025 23:15 11,3 °C 15,7 °C 11,7 °C 56 % 38 % 1015,0 hPa 0,00 l/m² 51,3 km/h (7 Bft) S-SW 195 ° 0 min 0 lux 0 W/m² 2,8 °C
03.10.2025 23:30 11,3 °C 15,6 °C 11,5 °C 56 % 38 % 1015,0 hPa 0,00 l/m² 51,3 km/h (7 Bft) S-SW 195 ° 0 min 0 lux 0 W/m² 2,8 °C
03.10.2025 23:45 11,1 °C 15,6 °C 11,4 °C 56 % 38 % 1015,0 hPa 0,00 l/m² 51,3 km/h (7 Bft) S-SW 195 ° 0 min 0 lux 0 W/m² 2,7 °C
_ Min-Zeit 07:00 07:45 07:00 15:15 16:00 23:00 - 00:00 - - - - - 07:00
Minimum _ 2,8 °C 13,6 °C 2,7 °C 44 % 26 % 1014,9 hPa - 51,3 km/h (7 Bft) - - - - - 0,5 °C
_ Max-Zeit 15:00 11:45 15:00 03:00 07:30 00:00 00:00 00:00 - - 08:00 15:15 15:15 12:30
Maximum _ 15,0 °C 22,7 °C 15,9 °C 85 % 92 % 1027,9 hPa 0,00 l/m² 51,3 km/h
S-SW (7 Bft)
- - 15 min 62,5 klux 407 W/m² 5,3 °C
Durchschnitt _ 9,3 °C 16,2 °C 9,8 °C 68 % 57 % 1022,5 hPa #0,00 l/m² 51,3 km/h (7 Bft) S-SW - #8:30 h 15,5 klux 211 W/m² 3,4 °C